Lexington Weather

Lexington, Massachusetts, USA

45°F
4/22/2024 9:21am 
  • Lexington Conditions: Clear
  • Temperature: 44.8°F / 7.1°CWarmer 3.3°F than last hour.
  • Dew Point: 26.2°FDecreased 2.0°Fsince last hour.
  • Relative Humidity: 48%Decreased 11.0% since last hour.
  • Wind: Calm, 10-min avg: Calm, gust: 4 mph
  • Barometer: 29.96 in Steady
  • Visibility: 10 miles
  • Rain Today: 0.00 in
  •   

Regional Weather Roundup
for Boston, MA

        
000
ASUS41 KBOX 151910
RWRBOX

REGIONAL WEATHER ROUNDUP
NATIONAL WEATHER SERVICE BOSTON/NORTON MA
300 PM EDT MON APR 15 2024

NOTE:  "FAIR" INDICATES FEW OR NO CLOUDS BELOW 12,000 FEET WITH NO 
SIGNIFICANT WEATHER AND/OR OBSTRUCTIONS TO VISIBILITY.

MAZALL-152000-
EASTERN MASSACHUSETTS
  
CITY           SKY/WX    TMP DP  RH WIND       PRES   REMARKS
BOSTON         MOSUNNY   72  40  31 W21G33    29.75F                  
BEVERLY        PTSUNNY   68  40  35 W15G23    29.74F                  
LAWRENCE       SUNNY     69  39  33 W16G28    29.75F                  
BEDFORD        PTSUNNY   69  40  34 W15G31    29.75S                  
NORWOOD        PTSUNNY   75  43  31 NW12G25   29.75F                  
MARSHFIELD     MOSUNNY   59  46  63 VRB5      29.77S                  
PLYMOUTH       PTSUNNY   73  46  38 W8        29.75S                  
TAUNTON        MOSUNNY   75  39  27 W13G26    29.75F                  
NEW BEDFORD    SUNNY     69  48  47 SW18G24   29.77R                  
$$

MAZALL-152000-
CAPE COD AND THE ISLANDS
  
CITY           SKY/WX    TMP DP  RH WIND       PRES   REMARKS
FALMOUTH       SUNNY     66  46  48 W16G28    29.77F                  
HYANNIS        SUNNY     59  47  64 S13       29.77F                  
CHATHAM        SUNNY     60  48  64 S7        29.79F                  
PROVINCETOWN   MOSUNNY   66  48  52 SE5       29.78S                  
NANTUCKET      SUNNY     55  47  74 SW13      29.80F                  
MARTHAS VNYRD  SUNNY     60  49  66 SW13      29.80R                  
$$
 
MAZALL-152000-
CENTRAL AND WESTERN MASSACHUSETTS
  
CITY           SKY/WX    TMP DP  RH WIND       PRES   REMARKS
WORCESTER      MOSUNNY   69  37  30 W16G28    29.78S                  
FITCHBURG      CLOUDY    69  39  33 W14G28    29.79R                  
ORANGE         MOSUNNY   64  40  41 W17G31    29.82R                  
SPRINGFIELD    NOT AVBL                                               
WESTFIELD      PTSUNNY   71  41  33 W13G26    29.80R                  
NORTH ADAMS    MOSUNNY   62  37  39 W14G29    29.85R                  
PITTSFIELD     PTSUNNY   59  39  47 W15G31    29.83F                  
$$
 
RIZALL-152000-
RHODE ISLAND
  
CITY           SKY/WX    TMP DP  RH WIND       PRES   REMARKS
PROVIDENCE     MOSUNNY   75  41  29 W14G28    29.76F                  
NEWPORT        SUNNY     61  49  64 S9        29.78F                  
BLOCK ISLAND   SUNNY     59  49  69 SW14      29.81S                  
SMITHFIELD     MOSUNNY   73  43  33 W10G22    29.77F                  
WESTERLY       MOSUNNY   66  51  58 S10       29.79F                  
$$
 
CTZALL-152000-
CONNECTICUT
  
CITY           SKY/WX    TMP DP  RH WIND       PRES   REMARKS
BRADLEY INTL   MOSUNNY   75  42  30 NW13G23   29.78F                  
HARTFORD       PTSUNNY   74  39  28 W17G29    29.77F                  
PLAINVILLE     MOCLDY    73  38  28 W8G21     29.77F                  
BRIDGEPORT     PTSUNNY   73  41  31 SW10      29.78F                  
DANBURY        MOSUNNY   76  39  26 W14G31    29.80F                  
GROTON         MOSUNNY   62  53  72 S7        29.78F                  
NEW HAVEN      PTSUNNY   71  47  42 VRB6      29.78F                  
CHESTER        MOSUNNY   75  37  25 SW14G22   29.78F                  
MERIDEN        CLOUDY    75  36  24 NW17G31   29.78S                  
WILLIMANTIC    PTSUNNY   73  39  29 W9G28     29.77F                  
OXFORD         PTSUNNY   72  39  30 W15G24    29.80F                  
$$

MEZ002-015-021-024-NHZ003-005-008-011-012-014-VTZ005-008-152000-
NORTHERN NEW ENGLAND
  
CITY           SKY/WX    TMP DP  RH WIND       PRES   REMARKS
PORTLAND ME    PTSUNNY   59  46  62 S9        29.75F                  
BANGOR ME      PTSUNNY   61  39  44 SW13      29.73S                  
CONCORD NH     PTSUNNY   64  35  34 W14G25    29.76R                  
MANCHESTER NH  MOSUNNY   69  35  28 W15G29    29.74S                  
NASHUA NH      MOSUNNY   70  37  29 W8G28     29.76S                  
PORTSMOUTH NH  NOT AVBL                                               
JAFFREY NH     MOSUNNY   63  34  33 SW14G28   29.81R                  
KEENE NH       MOSUNNY   63  36  36 W14G22    29.81R                  
BURLINGTON VT  PTSUNNY   54  38  54 NW7       29.85S                  
MT. WASHINGTON BLWGSNOW  28  28 100 NW38G45     N/A  VSB 0   WCI  11  
$$

NYZ052-076-152000-
EASTERN NEW YORK
  
CITY           SKY/WX    TMP DP  RH WIND       PRES   REMARKS
ALBANY         MOSUNNY   63  39  41 W22G29    29.88R                  
NEW YORK CITY  PTSUNNY   79  38  22 W12G30    29.78F                  
$$
 
ANZALL-152000-
MARINE OBSERVATIONS
  
STATION/POSITION TIME  TEMP    WIND        PRES    VSBY  WAVE
                       AIR SEA DIR/SP/G                  HT/PER
                 (UTC) (F)     (DEG/KT/KT) (MB)    (MI)  (FT/S)
BOSTON BUOY      1850   49     140/ 10/ 12 1007.6F         3/11
BUZZARDS BAY     1800   49     200/ 16/ 17 1009.5F
NANTUCKET SOUND  1850   50 46  200/  8/ 10 1008.6S         1
MASS BAY-STELLWA 1704   49 45  170/  8/ 10 1008.4F  1 7/8  3/11
ISLE OF SHOALS   1800   53     160/ 18/ 19 1007.2F
S OF BLOCK IS    1856      45                N/A           6/ 8
$$

......................KEY.........................
  SKY/WX - SKY CONDITION/PRESENT WEATHER
  TMP    - TEMPERATURE IN FAHRENHEIT
  DWPT   - DEWPOINT IN FAHRENHEIT
  RH     - RELATIVE HUMIDITY IN PERCENT
  WIND   - DIRECTION AND SPEED IN MPH
  PRES   - MEAN SEA LEVEL PRESSURE IN INCHES OF HG
  WCI    - WIND CHILL INDEX
  VSB    - VISIBILITY IN MILES
  HX     - HEAT INDEX
  TC     - TEMPERATURE IN CELSIUS
  VRB    - VARIABLE WIND DIRECTION
  N/A    - NOT AVAILABLE
  
      

Other recent Regional Weather Roundups

Mon Apr 22, 9:10am EDT

Mon Apr 22, 8:10am EDT

Mon Apr 22, 7:10am EDT

Mon Apr 22, 6:10am EDT

Mon Apr 22, 5:10am EDT

Mon Apr 22, 4:10am EDT

Mon Apr 22, 3:10am EDT

Mon Apr 22, 2:10am EDT

Mon Apr 22, 1:10am EDT

Mon Apr 22, 12:10am EDT

Sun Apr 21, 11:10pm EDT

Sun Apr 21, 10:10pm EDT

Sun Apr 21, 9:10pm EDT

Sun Apr 21, 8:10pm EDT

Sun Apr 21, 7:10pm EDT

Sun Apr 21, 6:10pm EDT

Sun Apr 21, 5:10pm EDT

Sun Apr 21, 4:10pm EDT

Sun Apr 21, 3:10pm EDT

Sun Apr 21, 2:10pm EDT

Sun Apr 21, 1:10pm EDT

Sun Apr 21, 12:10pm EDT

Sun Apr 21, 11:10am EDT

Sun Apr 21, 10:10am EDT

Sun Apr 21, 9:10am EDT

Sun Apr 21, 8:10am EDT

Sun Apr 21, 7:10am EDT

Sun Apr 21, 6:10am EDT

Sun Apr 21, 5:10am EDT

Sun Apr 21, 4:10am EDT

Sun Apr 21, 3:10am EDT

Sun Apr 21, 2:10am EDT

Sun Apr 21, 1:10am EDT

Sun Apr 21, 12:10am EDT

Sat Apr 20, 11:10pm EDT

Sat Apr 20, 10:10pm EDT

Sat Apr 20, 9:10pm EDT

Sat Apr 20, 8:10pm EDT

Sat Apr 20, 7:10pm EDT

Sat Apr 20, 6:10pm EDT

Sat Apr 20, 5:10pm EDT

Sat Apr 20, 4:10pm EDT

Sat Apr 20, 3:10pm EDT

Sat Apr 20, 2:10pm EDT

Sat Apr 20, 1:10pm EDT

Sat Apr 20, 12:10pm EDT

Sat Apr 20, 11:10am EDT

Sat Apr 20, 10:10am EDT

Sat Apr 20, 9:10am EDT

Sat Apr 20, 8:10am EDT

Sat Apr 20, 7:10am EDT

Sat Apr 20, 6:10am EDT

Sat Apr 20, 5:10am EDT

Sat Apr 20, 4:10am EDT

Sat Apr 20, 3:10am EDT

Sat Apr 20, 2:10am EDT

Sat Apr 20, 1:10am EDT

Sat Apr 20, 12:10am EDT

Fri Apr 19, 11:10pm EDT

Fri Apr 19, 10:10pm EDT

Fri Apr 19, 9:10pm EDT

Fri Apr 19, 8:10pm EDT

Fri Apr 19, 7:10pm EDT

Fri Apr 19, 6:10pm EDT

Fri Apr 19, 5:10pm EDT

Fri Apr 19, 4:10pm EDT

Fri Apr 19, 3:10pm EDT

Fri Apr 19, 2:10pm EDT

Fri Apr 19, 1:10pm EDT

Fri Apr 19, 12:10pm EDT

Fri Apr 19, 11:10am EDT

Fri Apr 19, 10:10am EDT

Fri Apr 19, 9:10am EDT

Fri Apr 19, 8:10am EDT

Fri Apr 19, 7:10am EDT

Fri Apr 19, 6:10am EDT

Fri Apr 19, 5:10am EDT

Fri Apr 19, 4:10am EDT

Fri Apr 19, 3:10am EDT

Fri Apr 19, 2:10am EDT

Fri Apr 19, 1:10am EDT

Fri Apr 19, 12:10am EDT

Thu Apr 18, 11:10pm EDT

Thu Apr 18, 10:10pm EDT

Thu Apr 18, 9:10pm EDT

Thu Apr 18, 8:10pm EDT

Thu Apr 18, 7:10pm EDT

Thu Apr 18, 6:10pm EDT

Thu Apr 18, 5:10pm EDT

Thu Apr 18, 4:10pm EDT

Thu Apr 18, 3:10pm EDT

Thu Apr 18, 2:10pm EDT

Thu Apr 18, 1:10pm EDT

Thu Apr 18, 12:10pm EDT

Thu Apr 18, 11:10am EDT

Thu Apr 18, 10:10am EDT

Thu Apr 18, 9:10am EDT

Thu Apr 18, 8:10am EDT

Thu Apr 18, 7:10am EDT

Thu Apr 18, 6:10am EDT

Thu Apr 18, 5:10am EDT

Thu Apr 18, 4:10am EDT

Thu Apr 18, 3:10am EDT

Thu Apr 18, 2:10am EDT

Thu Apr 18, 1:10am EDT

Thu Apr 18, 12:10am EDT

Wed Apr 17, 11:10pm EDT

Wed Apr 17, 10:10pm EDT

Wed Apr 17, 9:10pm EDT

Wed Apr 17, 8:10pm EDT

Wed Apr 17, 7:10pm EDT

Wed Apr 17, 6:10pm EDT

Wed Apr 17, 5:10pm EDT

Wed Apr 17, 4:10pm EDT

Wed Apr 17, 3:10pm EDT

Wed Apr 17, 2:10pm EDT

Wed Apr 17, 1:10pm EDT

Wed Apr 17, 12:10pm EDT

Wed Apr 17, 11:10am EDT

Wed Apr 17, 10:10am EDT

Wed Apr 17, 9:10am EDT

Wed Apr 17, 8:10am EDT

Wed Apr 17, 7:10am EDT

Wed Apr 17, 6:10am EDT

Wed Apr 17, 5:10am EDT

Wed Apr 17, 4:10am EDT

Wed Apr 17, 3:10am EDT

Wed Apr 17, 2:10am EDT

Wed Apr 17, 1:10am EDT

Wed Apr 17, 12:10am EDT

Tue Apr 16, 11:10pm EDT

Tue Apr 16, 10:10pm EDT

Tue Apr 16, 9:10pm EDT

Tue Apr 16, 8:10pm EDT

Tue Apr 16, 7:10pm EDT

Tue Apr 16, 6:10pm EDT

Tue Apr 16, 5:10pm EDT

Tue Apr 16, 4:10pm EDT

Tue Apr 16, 3:10pm EDT

Tue Apr 16, 2:10pm EDT

Tue Apr 16, 1:10pm EDT

Tue Apr 16, 12:10pm EDT

Tue Apr 16, 11:10am EDT

Tue Apr 16, 10:10am EDT

Tue Apr 16, 9:10am EDT

Tue Apr 16, 8:10am EDT

Tue Apr 16, 7:10am EDT

Tue Apr 16, 6:10am EDT

Tue Apr 16, 5:10am EDT

Tue Apr 16, 4:10am EDT

Tue Apr 16, 3:10am EDT

Tue Apr 16, 2:10am EDT

Tue Apr 16, 1:10am EDT

Tue Apr 16, 12:10am EDT

Mon Apr 15, 11:10pm EDT

Mon Apr 15, 10:10pm EDT

Mon Apr 15, 9:10pm EDT

Mon Apr 15, 8:10pm EDT

Mon Apr 15, 7:10pm EDT

Mon Apr 15, 6:10pm EDT

Mon Apr 15, 5:10pm EDT

Mon Apr 15, 4:10pm EDT

Mon Apr 15, 2:10pm EDT

Mon Apr 15, 1:10pm EDT

Mon Apr 15, 12:10pm EDT

Mon Apr 15, 11:10am EDT

Mon Apr 15, 10:10am EDT